Hourly Data Report for October 05, 2014

All times are specified in Local Standard Time (LST). Add 1 hour to adjust for Daylight Saving Time where and when it is observed.

ST LEONARD CS
NEW BRUNSWICK

47°09'28.050" N
67°49'55.014" W
245.00 m
810I001
71019
WIY

Download Data

Hourly Data (October 2014)
Hourly Data Report for October 5, 2014
Temp Definition
°C
Dew Point Temp Definition
°C
Rel Hum Definition
%
Wind Dir Definition
10's deg

Wind Spd Definition
km/h
Visibility Definition
km
Stn Press Definition
kPa
Hmdx Definition


Wind Chill Definition


Weather Definition


TIME
00:00 15.3 14.0 92 11 5   97.66     LegendNANA
01:00 15.4 14.1 92 12 5   97.58     LegendNANA
02:00 15.6 14.2 91 12 7   97.48     LegendNANA
03:00 15.4 14.1 92 12 5   97.42     LegendNANA
04:00 15.3 14.0 92 12 5   97.35     LegendNANA
05:00 15.3 13.8 91 12 6   97.33     LegendNANA
06:00 15.5 13.7 89 12 6   97.30     LegendNANA
07:00 15.1 13.9 92 12 3   97.27     LegendNANA
08:00 14.9 13.8 94 12 4   97.24     LegendNANA
09:00 15.2 14.2 94 13 6   97.20     LegendNANA
10:00 15.3 14.5 95 12 4   97.14     LegendNANA
11:00 15.3 14.7 96 14 3   97.14     LegendNANA
12:00 16.0 15.2 95 17 6   97.19     LegendNANA
13:00 11.4 10.5 95 26 7   97.32     LegendNANA
14:00 11.4 10.4 94 28 5   97.41     LegendNANA
15:00 11.1 9.5 90 29 3   97.50     LegendNANA
16:00 11.5 9.5 88 27 1   97.58     LegendNANA
17:00 12.2 9.8 85   0   97.64     LegendNANA
18:00 11.1 9.3 89 23 LegendMM   97.71     LegendNANA
19:00 8.4 7.7 96   0   97.78     LegendNANA
20:00 8.2 7.6 96 0 1   97.85     LegendNANA
21:00 7.3 6.4 94 27 2   97.95     LegendNANA
22:00 6.9 5.3 90 25 2   98.03     LegendNANA
23:00 5.5 4.2 92 31 1   98.10     LegendNANA

Notes on Data Quality.

Legend

  • E = Estimated
  • M = Missing
  • NA = Not Available
  • ‡ = Partner data that is not subject to review by the National Climate Archives
Date modified: